This is the latest recevied weather packets stored in our database for station/object KD0ISH. If no packets are shown the sender has not sent any weather packets the latest 10 day(s).
| Time | Temp. | Humidity | Pressure | Rain* | Wind** | Luminosity | Snow |
|---|---|---|---|---|---|---|---|
| 1777861026 | 21.11° C | 52% | 1011.1 hPa | 0 mm | - | 0 W/m² | - |
| 1777860723 | 21.11° C | 53% | 1011 hPa | 0 mm | - | 0 W/m² | - |
| 1777860420 | 21.67° C | 53% | 1011.1 hPa | 0 mm | - | 0 W/m² | - |
| 1777860115 | 21.67° C | 53% | 1011.1 hPa | 0 mm | - | 0 W/m² | - |
| 1777859812 | 21.67° C | 53% | 1011.1 hPa | 0 mm | - | 0 W/m² | - |
| 1777859509 | 21.67° C | 53% | 1011.2 hPa | 0 mm | - | 0 W/m² | - |
| 1777859204 | 21.67° C | 53% | 1011.2 hPa | 0 mm | - | 0 W/m² | - |
| 1777858902 | 21.67° C | 53% | 1011 hPa | 0 mm | - | 0 W/m² | - |
| 1777858599 | 21.67° C | 53% | 1011.1 hPa | 0 mm | - | 0 W/m² | - |
| 1777858296 | 22.22° C | 52% | 1011.2 hPa | 0 mm | - | 0 W/m² | - |
| 1777857993 | 22.22° C | 52% | 1011 hPa | 0 mm | - | 0 W/m² | - |
| 1777857692 | 22.22° C | 53% | 1011 hPa | 0 mm | - | 0 W/m² | - |
| 1777857388 | 22.22° C | 53% | 1011.2 hPa | 0 mm | - | 0 W/m² | - |
| 1777857085 | 22.22° C | 53% | 1011.3 hPa | 0 mm | - | 0 W/m² | - |
| 1777856780 | 22.22° C | 53% | 1011.2 hPa | 0 mm | - | 0 W/m² | - |
| 1777856476 | 22.78° C | 53% | 1011.1 hPa | 0 mm | - | 1 W/m² | - |
| 1777856173 | 22.78° C | 52% | 1011.2 hPa | 0 mm | - | 4 W/m² | - |
| 1777855870 | 22.78° C | 52% | 1011.4 hPa | 0 mm | - | 6 W/m² | - |
| 1777855569 | 22.78° C | 52% | 1011.3 hPa | 0 mm | - | 9 W/m² | - |
| 1777855265 | 22.78° C | 52% | 1011.4 hPa | 0 mm | - | 13 W/m² | - |
| 1777854961 | 23.33° C | 51% | 1011.5 hPa | 0 mm | - | 15 W/m² | - |
| 1777854658 | 23.33° C | 51% | 1011.4 hPa | 0 mm | - | 18 W/m² | - |
| 1777854355 | 23.89° C | 50% | 1011.8 hPa | 0 mm | - | 23 W/m² | - |
| 1777854053 | 23.89° C | 50% | 1011.6 hPa | 0 mm | - | 31 W/m² | - |
| 1777853750 | 23.89° C | 49% | 1011.7 hPa | 0 mm | - | 39 W/m² | - |
* Rain latest hour (hover to see other rain measurements)
** Current wind speed in m/s (hover to see current wind gust speed)